Regional Weather Roundup
Issued by NWS

Home | Current Version | Previous Version | Text Only | Print | Product List | Glossary On
Versions: 1 2 3 4 5 6 7 8 9 10 11 12 13 14 15 16 17 18 19 20 21 22 23 24 25 26 27 28 29 30 31 32 33 34 35 36 37 38 39 40 41 42 43 44 45 46 47 48 49 50
000
ASUS43 KOAX 010810
RWRNE

WEATHER ROUNDUP FOR NEBRASKA
NATIONAL WEATHER SERVICE OMAHA NE
300 AM CDT SAT AUG 01 2015

NOTES: SATELLITE DATA IS BEING USED TO AUGMENT CLOUD COVER ABOVE
       12000 FEET.
       "FAIR" INDICATES FEW OR NO CLOUDS BELOW 12,000 FEET WITH NO
       SIGNIFICANT WEATHER AND/OR OBSTRUCTIONS TO VISIBILITY.

  * THESE STATIONS DO NOT REPORT WEATHER SUCH AS RAIN...SNOW OR FOG.

NEZ001>004-019>022-054>056-010900-
NEBRASKA PANHANDLE

CITY           SKY/WX    TMP DP  RH WIND       PRES   REMARKS
SCOTTSBLUFF    CLEAR     65  55  70 E7        30.13F
ALLIANCE       CLEAR     60  54  80 S7        30.13F
CHADRON        CLEAR     61  53  75 CALM      30.08F
KIMBALL        CLEAR     60  52  77 S6        30.19S
SIDNEY         CLEAR     67  55  65 SW10      30.18F
$$

NEZ057>060-069>072-079>082-010900-
SOUTHWEST NEBRASKA

CITY           SKY/WX    TMP DP  RH WIND       PRES   REMARKS
NORTH PLATTE   CLEAR     63  60  90 E3        30.11F
IMPERIAL       CLEAR     70  57  63 SW8       30.13F
LEXINGTON      CLEAR     67  63  85 CALM      30.11F
MCCOOK         MOCLDY    76  56  49 E28       30.13S
OGALLALA       CLEAR     64  62  91 CALM      30.13F
$$

NEZ005>010-023>029-035>040-094-010900-
NORTH CENTRAL NEBRASKA

CITY           SKY/WX    TMP DP  RH WIND       PRES   REMARKS
VALENTINE      PTCLDY    67  60  78 NE5       30.11F
AINSWORTH      PTCLDY    66  62  86 S3        30.10F
BROKEN BOW     CLEAR     68  60  75 S5        30.09F
O`NEILL        MOCLDY    67  65  93 CALM      30.09F
ORD            MOCLDY    65  62  90 CALM      30.08F
THEDFORD       CLEAR     66  60  81 CALM      30.11F
$$

NEZ041-046>049-061>064-073>077-083>087-010900-
SOUTH CENTRAL NEBRASKA

CITY           SKY/WX    TMP DP  RH WIND       PRES   REMARKS
GRAND ISLAND   MOCLDY    65  63  93 N7        30.09F
AURORA         CLOUDY    64  64  97 CALM      30.08F
HASTINGS       MOCLDY    70  61  73 SW6       30.07F
HEBRON         PTCLDY    67  63  86 CALM      30.08F
HOLDREGE       PTCLDY    65  61  86 S5        30.10F
KEARNEY *      CLEAR     70  61  73 S9        30.08F
YORK           PTCLDY    61  61 100 CALM      30.09F
$$

NEZ011>018-030>034-042>045-010900-
NORTHEAST NEBRASKA

CITY           SKY/WX    TMP DP  RH WIND       PRES   REMARKS
NORFOLK        CLEAR     61  60  97 SW6       30.09S
ALBION         CLEAR     60  58  94 CALM      30.10F
BLAIR          CLEAR     68  65  92 CALM      30.07F
COLUMBUS *     CLEAR     57  52  82 CALM      30.09F
FREMONT        CLEAR     65  63  91 NW5       30.07F
TEKAMAH        CLEAR     65  63  93 N5        30.05F
WAYNE          CLEAR     62  60  95 CALM      30.08F
$$

NEZ050>053-065>068-078-088>093-010900-
SOUTHEAST NEBRASKA

CITY           SKY/WX    TMP DP  RH WIND       PRES   REMARKS
LINCOLN        CLEAR     67  63  87 CALM      30.08F
OMAHA EPPLEY   CLEAR     71  67  87 CALM      30.06F
BEATRICE       CLEAR     67  65  91 CALM      30.07F
FALLS CITY     CLEAR     70  68  93 CALM      30.04F
NEBRASKA CITY  CLEAR     67  66  97 CALM      30.06F
PLATTSMOUTH    CLEAR     67  65  96 CALM      30.06F
$$

NEZ044-045-051>053-067-010900-
OMAHA AREA

CITY           SKY/WX    TMP DP  RH WIND       PRES   REMARKS
OMAHA EPPLEY   CLEAR     71  67  87 CALM      30.06F
BLAIR          CLEAR     68  65  92 CALM      30.07F
FREMONT        CLEAR     65  63  91 NW5       30.07F
MILLARD        CLEAR     69  67  94 CALM      30.06F
OFFUTT AFB     CLEAR     67  66  98 CALM      30.05F
PLATTSMOUTH    CLEAR     67  65  96 CALM      30.06F
WAHOO          FAIR      64  62  94 CALM      30.07F
$$


USA.gov is the U.S. government's official web portal to all federal, state and local government web resources and services.